Weather History for Palm Springs, CA

Change the Weather History Date:

Wednesday, June 20, 2012

  Actual Average Record
Temperature  
Mean Temperature 90 °F 88 °F  
Max Temperature 109 °F 103 °F 118 °F (1929)
Min Temperature 71 °F 72 °F 53 °F (1938)
Degree Days  
Heating Degree Days 0 0  
Month to date heating degree days 0 0  
Since 1 June heating degree days 0 0  
Since 1 July heating degree days 771 874  
Cooling Degree Days 25 23  
Month to date cooling degree days 457 405  
Year to date cooling degree days 1396 1164  
Since 1 June cooling degree days 457 405  
Growing Degree Days 40 (Base 50)    
Moisture  
Dew Point 41 °F    
Average Humidity 25    
Maximum Humidity 44    
Minimum Humidity 6    
Precipitation  
Precipitation 0.00 in 0.00 in 0.00 in (2015)
Month to date precipitation 0.00 0.04  
Year to date precipitation 0.79 2.92  
Since 1 July precipitation 2.27 5.72  
Snow  
Snow 0.00 in - - ()
Month to date snowfall 0.0  
Year to date snowfall 0.0  
Since 1 July snowfall 0.0  
Snow Depth 0.00 in    
Sea Level Pressure  
Sea Level Pressure 29.63 in    
Wind  
Wind Speed 4 mph (NW)    
Max Wind Speed 17 mph    
Max Gust Speed 23 mph    
Visibility 10 miles    
Events      
T = Trace of Precipitation, MM = Missing Value Source: NWS Daily Summary

Daily Weather History Graph

Daily Weather History Graph

Search for Another Location

Airport:

Trip Planner

Search our weather history database for the weather conditions in past years. The results will help you decide how hot, cold, wet, or windy it might be!

Date:

Astronomy

Jun. 20, 2012 Rise Set
Actual Time 5:35 AM PDT 7:59 PM PDT
Civil Twilight 5:06 AM PDT 8:29 PM PDT
Nautical Twilight 4:30 AM PDT 9:04 PM PDT
Astronomical Twilight 3:51 AM PDT 9:44 PM PDT
Moon 6:36 AM PDT (6/20) 8:53 PM PDT (6/20)
Length of Visible Light 15h 22m
Length of Day
14h 24m
New Moon, 1% of the Moon is Illuminated
Jun 20
New Moon
Jun 26
First Quarter
Jul 3
Full
Jul 10
Last Quarter
Jul 18
New

Hourly Weather History & Observations

Time (PDT) Temp. Dew Point Humidity Pressure Visibility Wind Dir Wind Speed Gust Speed Precip Events Conditions
12:53 AM 82.0 °F 44.1 °F 26% 29.60 in 10.0 mi SSE 3.5 mph - N/A   Clear
1:53 AM 79.0 °F 45.0 °F 30% 29.59 in 10.0 mi South 4.6 mph - N/A   Clear
2:53 AM 78.1 °F 46.9 °F 33% 29.58 in 10.0 mi Calm Calm - N/A   Clear
3:53 AM 75.0 °F 46.9 °F 37% 29.58 in 10.0 mi East 5.8 mph - N/A   Clear
4:53 AM 77.0 °F 46.9 °F 34% 29.60 in 10.0 mi Calm Calm - N/A   Clear
5:53 AM 73.0 °F 50.0 °F 44% 29.63 in 10.0 mi ESE 3.5 mph - N/A   Clear
6:53 AM 78.1 °F 41.0 °F 27% 29.65 in 10.0 mi Calm Calm - N/A   Clear
7:53 AM 82.0 °F 45.0 °F 27% 29.67 in 10.0 mi SSE 3.5 mph - N/A   Clear
8:53 AM 88.0 °F 39.9 °F 18% 29.68 in 10.0 mi Calm Calm - N/A   Clear
9:53 AM 93.2 °F 35.6 °F 13% 29.69 in - Calm Calm - N/A   Clear
10:53 AM 97.0 °F 33.1 °F 11% 29.68 in 10.0 mi WSW 3.5 mph - N/A   Clear
11:53 AM 100.0 °F 30.9 °F 9% 29.67 in 10.0 mi Calm Calm - N/A   Clear
12:53 PM 104.0 °F 30.0 °F 8% 29.66 in 10.0 mi Variable 5.8 mph - N/A   Clear
1:53 PM 105.1 °F 28.0 °F 7% 29.65 in 10.0 mi Variable 4.6 mph - N/A   Clear
2:53 PM 107.1 °F 28.0 °F 6% 29.63 in 10.0 mi ESE 5.8 mph - N/A   Clear
3:53 PM 108.0 °F 35.1 °F 8% 29.61 in 10.0 mi NNW 16.1 mph - N/A   Clear
4:53 PM 107.1 °F 37.9 °F 9% 29.60 in 10.0 mi NW 13.8 mph 19.6 mph N/A   Clear
5:53 PM 105.1 °F 41.0 °F 11% 29.59 in 10.0 mi NW 18.4 mph 24.2 mph N/A   Clear
6:53 PM 100.0 °F 45.0 °F 15% 29.60 in 10.0 mi NW 19.6 mph 25.3 mph N/A   Clear
7:53 PM 96.1 °F 46.9 °F 19% 29.61 in 10.0 mi NW 20.7 mph 26.5 mph N/A   Clear
8:53 PM 93.0 °F 46.9 °F 20% 29.62 in 10.0 mi NW 17.3 mph 27.6 mph N/A   Clear
9:53 PM 91.9 °F 48.9 °F 23% 29.65 in 10.0 mi NW 12.7 mph - N/A   Clear
10:53 PM 88.0 °F 48.9 °F 26% 29.66 in 10.0 mi Calm Calm - N/A   Clear
11:53 PM 86.0 °F 48.9 °F 28% 29.67 in 10.0 mi North 6.9 mph - N/A   Clear